sat.trackr.live / text

‹ back to catalog

YAOGAN-43 03C

NORAD 61619 · 2024-190C

PAYLOAD ACTIVE UNKNOWN

§ Identity

Operator
Country
PRC
Launch date
2024-10-23
Launch site
XICLF
Launch vehicle
Mass (kg)
RCS (m²)

External: N2YO · Heavens-Above · Gunter

§ Orbital elements

Epoch: 2026-05-24T23:32:47.352768Z

Period
94.55 min
Inclination
34.9964°
Eccentricity
0.0005208
Mean motion
15.23037320 rev/d
Perigee alt
493.1 km
Apogee alt
500.3 km
Semi-major
6,874.8 km
B*
1.0895e-4
RAAN
344.0186°
Arg perigee
145.0231°
Mean anomaly
215.0826°
Rev number
8,828

§ Raw data

YAOGAN-43 03C1 61619U 24190C   26144.98110362  .00002592  00000+0  10895-3 0  99992 61619  34.9964 344.0186 0005208 145.0231 215.0826 15.23037320 88283

JSON: /api/v1/satellites/61619 · /tle

For live sub-satellite position, see the globe view (requires WebGL).

§ Visibility from observer

Set your observer location to see the next 7 days of passes ≥ 10°. The values pass through the URL so the page stays shareable.

No JS? Fill the form by hand. The geolocation button needs JavaScript.